Resolute,

5:09 AM CDT on March 25, 2017 (GMT -0500)
Resolute

Weather History for CYRB - October, 2013

Change the Weather History Date:

Sunday, October 6, 2013

  Actual Average Record
Temperature  
Mean Temperature 7 °F -  
Max Temperature 10 °F 7 °F 30 °F (2004)
Min Temperature 4 °F -4 °F 0 °F (2005)
Degree Days  
Heating Degree Days 58    
Moisture  
Dew Point 2 °F    
Average Humidity 75    
Maximum Humidity 92    
Minimum Humidity 55    
Precipitation  
Precipitation 0.00 in 0.02 in - ()
Sea Level Pressure  
Sea Level Pressure 30.21 in    
Wind  
Wind Speed 3 mph ()    
Max Wind Speed 10 mph    
Max Gust Speed -    
Visibility 15.0 miles    
Events Snow    
Averages and records for this station are not official NWS values.
T = Trace of Precipitation, MM = Missing Value Source: Averaged Metar Reports

Daily Weather History Graph

Daily Weather History Graph

Search for Another Location

Airport or City:

Trip Planner

Search our weather history database for the weather conditions in past years. The results will help you decide how hot, cold, wet, or windy it might be!

Date:

Astronomy

Oct. 06, 2013 Rise Set
Actual Time 8:14 AM CDT 5:59 PM CDT
Civil Twilight 6:54 AM CDT 7:18 PM CDT
Nautical Twilight 5:19 AM CDT 8:52 PM CDT
Astronomical Twilight 3:18 AM CDT 10:49 PM CDT
Moon 12:38 PM CDT (10/6) 4:09 PM CDT (10/6)
Length of Visible Light 12h 24m
Length of Day
9h 45m
Waxing Crescent, 3% of the Moon is Illuminated
Oct 6
Waxing Crescent
Oct 11
First Quarter
Oct 18
Full
Oct 26
Last Quarter
Nov 3
New

Hourly Weather History & Observations

Time (CDT) Temp. Windchill Dew Point Humidity Pressure Visibility Wind Dir Wind Speed Gust Speed Precip Events Conditions
12:00 AM 12.2 °F -1.0 °F 6.8 °F 79% 30.15 in 15.0 mi NNE 10.4 mph - N/A Snow Light Snow
12:18 AM - - - N/A% - 15.0 mi NNE 6.9 mph - N/A   Mostly Cloudy
1:00 AM 12.2 °F - 6.8 °F 79% 30.16 in 15.0 mi Calm Calm - N/A   Mostly Cloudy
2:00 AM 6.8 °F - 3.2 °F 85% 30.16 in 15.0 mi Calm Calm - N/A   Mostly Cloudy
3:00 AM 6.8 °F - 5.0 °F 92% 30.17 in 15.0 mi Calm Calm - N/A   Partly Cloudy
4:00 AM 8.6 °F - 3.2 °F 79% 30.17 in 15.0 mi Calm Calm - N/A   Partly Cloudy
5:00 AM 5.0 °F - -0.4 °F 78% 30.19 in 15.0 mi Calm Calm - N/A   Partly Cloudy
6:00 AM 8.6 °F - 1.4 °F 73% 30.19 in 15.0 mi NNW 2.3 mph - N/A   Partly Cloudy
7:00 AM 8 °F - 1 °F 62% 30.19 in 15 mi East 4.6 mph - -   Scattered Clouds
7:00 AM 8.6 °F 2.0 °F 1.4 °F 73% 30.19 in 15.0 mi ESE 3.5 mph - N/A   Partly Cloudy
8:00 AM 8.6 °F 2.0 °F 3.2 °F 79% 30.19 in 15.0 mi SE 3.5 mph - N/A   Partly Cloudy
9:00 AM 6.8 °F - 1.4 °F 79% 30.20 in 15.0 mi Calm Calm - N/A   Partly Cloudy
10:00 AM 6.8 °F -0.1 °F 1.4 °F 79% 30.21 in 15.0 mi ESE 3.5 mph - N/A   Partly Cloudy
11:00 AM 6.8 °F - 3.2 °F 85% 30.21 in 15.0 mi East 2.3 mph - N/A   Partly Cloudy
12:00 PM 6.8 °F - 3.2 °F 85% 30.21 in 15.0 mi Calm Calm - N/A   Partly Cloudy
1:00 PM 8 °F - 1 °F 62% 30.22 in 15 mi Calm Calm - -   Scattered Clouds
1:00 PM 8.6 °F - 1.4 °F 73% 30.22 in 15.0 mi Calm Calm - N/A   Partly Cloudy
2:00 PM 5.0 °F -2.1 °F -2.2 °F 72% 30.23 in 15.0 mi ESE 3.5 mph - N/A   Partly Cloudy
3:00 PM 8.6 °F 0.1 °F 1.4 °F 73% 30.23 in 15.0 mi ESE 4.6 mph - N/A   Partly Cloudy
4:00 PM 8.6 °F 2.0 °F 1.4 °F 73% 30.23 in 15.0 mi SE 3.5 mph - N/A   Mostly Cloudy
5:00 PM 8.6 °F 2.0 °F 1.4 °F 73% 30.24 in 15.0 mi East 3.5 mph - N/A   Mostly Cloudy
6:00 PM 8.6 °F 2.0 °F -0.4 °F 67% 30.25 in 15.0 mi ESE 3.5 mph - N/A   Mostly Cloudy
7:00 PM 9 °F - 0 °F 55% 30.25 in 15 mi ESE 3.5 mph - -   Clear
7:00 PM 8.6 °F 2.0 °F 1.4 °F 73% 30.25 in 15.0 mi ESE 3.5 mph - N/A   Mostly Cloudy
8:00 PM 8.6 °F 2.0 °F -0.4 °F 67% 30.25 in 15.0 mi SE 3.5 mph - N/A   Scattered Clouds
9:00 PM 6.8 °F -2.0 °F -0.4 °F 72% 30.25 in 15.0 mi SE 4.6 mph - N/A   Partly Cloudy
10:00 PM 6.8 °F -4.8 °F -0.4 °F 72% 30.24 in 15.0 mi ESE 6.9 mph - N/A   Partly Cloudy
11:00 PM 8.6 °F 0.1 °F 1.4 °F 73% 30.24 in 15.0 mi ESE 4.6 mph - N/A   Scattered Clouds